Flag for Switzerland Weather past 2 weeks in Locarno, Ticino, Switzerland

Now
46 °F

Cool.


Feels Like: 45 °F
Forecast: 22 / 41 °F
Wind: 3 mph from South

Location: Locarno-Monti

Current Time: Mar 5, 2015 at 9:05:34 AM

Latest Report: Mar 5, 2015 at 8:00 AM


Visibility: N/A

Pressure: 30.24 "Hg

Humidity: 22%

Dew point: 9 °F

Location of LocarnoLocation

Historic Weather in Locarno — Graph

°F

Locarno temperature yesterday

Maximum temperature yesterday: 53 °F (at 3:00 PM)
Minimum temperature yesterday: 41 °F (at 6:00 AM)
Average temperature yesterday: 47 °F

Past Weeks' High & Low Weather Summary

 TemperatureHumidityPressure
High60 °F (Mar 3, 1:00 PM)100% (Feb 21, 6:00 PM)30.65 "Hg (Feb 21, 6:00 PM)
Low32 °F (Feb 21, 9:00 PM)15% (Feb 25, 3:00 PM)29.60 "Hg (Feb 22, 3:00 PM)
Average44 °F55%30.03 "Hg
* Reported Feb 18 7:00 AM — Mar 5 7:00 AM, Locarno, Weather by CustomWeather, © 2015

Note: Actual official high and low records may vary slightly from our data, if they occured in-between our weather recording intervals... More about our weather records

Advertising

Locarno weather history for previous 24 hours

 ConditionsComfort  
Time TempWeatherWind HumidityBarometerVisibility
7:00 AM
Thu, Mar 5
41 °FPassing clouds.3 mph28%30.23 "Hg31 mi
6:00 AM42 °FQuite cool.5 mph24%30.24 "HgN/A
5:00 AM45 °FCool.5 mph17%30.24 "HgN/A
3:00 AM44 °FQuite cool.3 mph27%30.24 "HgN/A
2:00 AM46 °FCool.2 mph19%30.26 "HgN/A
1:00 AM46 °FCool.8 mph19%30.23 "HgN/A
12:00 AM47 °FCool.8 mph18%30.21 "HgN/A
11:00 PM
Wed, Mar 4
47 °FCool.7 mph22%30.20 "HgN/A
9:00 PM47 °FCool.5 mph20%30.17 "HgN/A
8:00 PM48 °FCool.7 mph21%30.16 "HgN/A
7:00 PM48 °FPassing clouds.5 mph20%30.14 "Hg25 mi
6:00 PM50 °FCool.2 mph22%30.11 "HgN/A
5:00 PM51 °FCool.6 mph19%30.10 "HgN/A
4:00 PM53 °FOvercast.3 mph23%30.08 "Hg12 mi
3:00 PM53 °FCool.2 mph41%30.08 "HgN/A
2:00 PM52 °FCool.6 mph49%30.09 "HgN/A
1:00 PM50 °FOvercast.5 mph53%30.11 "Hg4 mi
12:00 PM49 °FCool.3 mph57%30.14 "HgN/A
11:00 AM49 °FCool.3 mph53%30.16 "HgN/A
10:00 AM47 °FScattered clouds.2 mph65%30.19 "Hg5 mi
9:00 AM44 °FQuite cool.1 mph71%30.21 "HgN/A
Weather by CustomWeather, © 2015

See weather overviewHow to use our weather pages